TimePST,TemperatureF,Dew PointF,Humidity,Sea Level PressureIn,VisibilityMPH,Wind Direction,Wind SpeedMPH,Gust SpeedMPH,PrecipitationIn,Events,Conditions,WindDirDegrees,DateUTC
12:56 AM,23.0,8.1,53,30.15,10.0,Calm,Calm,-,N/A,,Clear,0,2012-12-22 08:56:00
1:56 AM,21.9,9.0,58,30.15,10.0,West,4.6,-,N/A,,Clear,270,2012-12-22 09:56:00
2:56 AM,19.9,7.0,57,30.16,10.0,WNW,3.5,-,N/A,,Clear,290,2012-12-22 10:56:00
3:56 AM,23.0,9.0,55,30.14,10.0,Calm,Calm,-,N/A,,Clear,0,2012-12-22 11:56:00
4:56 AM,23.0,9.0,55,30.15,10.0,Calm,Calm,-,N/A,,Clear,0,2012-12-22 12:56:00
5:56 AM,21.0,7.0,55,30.18,10.0,NW,4.6,-,N/A,,Clear,310,2012-12-22 13:56:00
6:56 AM,21.9,9.0,58,30.19,10.0,Calm,Calm,-,N/A,,Clear,0,2012-12-22 14:56:00
7:56 AM,23.0,9.0,55,30.19,10.0,ENE,3.5,-,N/A,,Clear,70,2012-12-22 15:56:00
8:56 AM,32.0,12.9,45,30.20,10.0,Calm,Calm,-,N/A,,Clear,0,2012-12-22 16:56:00
9:56 AM,39.9,14.0,35,30.19,10.0,Calm,Calm,-,N/A,,Clear,0,2012-12-22 17:56:00
10:56 AM,46.9,15.1,28,30.16,10.0,Calm,Calm,-,N/A,,Clear,0,2012-12-22 18:56:00
11:56 AM,57.9,17.1,20,30.10,10.0,SW,16.1,24.2,N/A,,Clear,220,2012-12-22 19:56:00
12:03 PM,57.2,17.6,21,30.06,10.0,SSW,16.1,24.2,N/A,,Clear,210,2012-12-22 20:03:00
12:56 PM,59.0,16.0,19,30.09,10.0,SW,19.6,25.3,N/A,,Scattered Clouds,220,2012-12-22 20:56:00
1:56 PM,57.0,24.1,28,30.09,10.0,SW,24.2,31.1,N/A,,Overcast,220,2012-12-22 21:56:00
2:56 PM,55.0,32.0,42,30.10,10.0,SW,26.5,31.1,N/A,,Mostly Cloudy,220,2012-12-22 22:56:00
3:56 PM,50.0,37.0,61,30.12,10.0,SW,19.6,27.6,N/A,,Partly Cloudy,220,2012-12-22 23:56:00
4:56 PM,46.9,37.0,68,30.13,10.0,SW,15.0,-,N/A,,Clear,220,2012-12-23 00:56:00
5:56 PM,46.0,37.9,73,30.15,10.0,SW,15.0,-,N/A,,Overcast,220,2012-12-23 01:56:00
6:56 PM,48.0,39.9,74,30.16,10.0,SSW,16.1,-,N/A,,Clear,210,2012-12-23 02:56:00
7:56 PM,48.0,39.9,74,30.17,10.0,WSW,8.1,-,N/A,,Partly Cloudy,250,2012-12-23 03:56:00
8:56 PM,46.9,41.0,80,30.17,10.0,SW,12.7,-,N/A,,Clear,230,2012-12-23 04:56:00
9:56 PM,46.9,39.9,77,30.18,10.0,WSW,10.4,-,N/A,,Scattered Clouds,250,2012-12-23 05:56:00
10:56 PM,44.1,39.0,82,30.16,10.0,Calm,Calm,-,N/A,,Clear,0,2012-12-23 06:56:00
11:56 PM,43.0,39.0,86,30.16,10.0,West,11.5,-,N/A,,Clear,260,2012-12-23 07:56:00